Weather History for Ellensburg, WA

Change the Weather History Date:

Monday, February 4, 2013

  Actual Average (KYKM) Record (KYKM)
Temperature  
Mean Temperature 44 °F 34 °F  
Max Temperature 52 °F 43 °F 63 °F (2011)
Min Temperature 36 °F 25 °F -7 °F (1985)
Degree Days  
Heating Degree Days 21 31  
Month to date heating degree days 124  
Since 1 July heating degree days 3842  
Cooling Degree Days 0 0  
Month to date cooling degree days 0  
Year to date cooling degree days 0  
Moisture  
Dew Point 33 °F    
Average Humidity 68    
Maximum Humidity 83    
Minimum Humidity 50    
Precipitation  
Precipitation 0.00 in 0.03 in 0.28 in (1950)
Month to date precipitation 0.11  
Year to date precipitation 1.25  
Snow  
Snow 0.00 in 0.20 in 3.30 in (1950)
Month to date snowfall 0.5  
Year to date snowfall 5.8  
Since 1 July snowfall 18.8  
Snow Depth -    
Sea Level Pressure  
Sea Level Pressure 30.06 in    
Wind  
Wind Speed 7 mph (WNW)    
Max Wind Speed 16 mph    
Max Gust Speed -    
Visibility 10 miles    
Events Rain    
T = Trace of Precipitation, MM = Missing Value Source: NWS Daily Summary

Daily Weather History Graph

Daily Weather History Graph

Search for Another Location

Airport:

Trip Planner

Search our weather history database for the weather conditions in past years. The results will help you decide how hot, cold, wet, or windy it might be!

Date:

Astronomy

Feb. 04, 2013 Rise Set
Actual Time 7:22 AM PST 5:10 PM PST
Civil Twilight 6:50 AM PST 5:42 PM PST
Nautical Twilight 6:14 AM PST 6:18 PM PST
Astronomical Twilight 5:38 AM PST 6:54 PM PST
Moon 2:09 AM PST (2/4) 11:32 AM PST (2/4)
Length of Visible Light 10h 51m
Length of Day
9h 47m
Last Quarter, 36% of the Moon is Illuminated
Feb 4
Last Quarter
Feb 9
New
Feb 17
First Quarter
Feb 25
Full
Mar 4
Last Quarter

Hourly Weather History & Observations

Time (PST) Temp. Windchill Dew Point Humidity Pressure Visibility Wind Dir Wind Speed Gust Speed Precip Events Conditions
12:53 AM 41.0 °F - 30.9 °F 67% 30.12 in 10.0 mi Calm Calm - N/A   Partly Cloudy
3:53 AM 42.1 °F 36.6 °F 32.0 °F 67% 30.13 in 10.0 mi NW 9.2 mph - N/A   Overcast
4:53 AM 42.1 °F 34.2 °F 33.1 °F 70% 30.13 in 10.0 mi NW 16.1 mph - N/A   Overcast
5:53 AM 39.9 °F 32.9 °F 32.0 °F 73% 30.12 in 10.0 mi NNW 11.5 mph - N/A   Scattered Clouds
6:53 AM 36.0 °F 30.3 °F 28.9 °F 76% 30.12 in 10.0 mi NW 6.9 mph - N/A   Clear
7:53 AM 37.9 °F 31.5 °F 30.9 °F 76% 30.13 in 10.0 mi WNW 9.2 mph - N/A   Partly Cloudy
8:53 AM 43.0 °F 37.7 °F 33.1 °F 68% 30.13 in 10.0 mi WNW 9.2 mph - N/A   Clear
9:53 AM 45.0 °F 40.1 °F 33.1 °F 63% 30.13 in 10.0 mi West 9.2 mph - N/A   Clear
10:53 AM 46.9 °F - 33.1 °F 59% 30.13 in 10.0 mi West 11.5 mph - N/A   Clear
11:53 AM 48.9 °F - 34.0 °F 56% 30.11 in 10.0 mi WNW 10.4 mph - N/A   Clear
12:53 PM 50.0 °F - 34.0 °F 54% 30.08 in 10.0 mi West 8.1 mph - N/A   Clear
1:53 PM 51.1 °F - 33.1 °F 50% 30.05 in 10.0 mi West 4.6 mph - N/A   Clear
2:53 PM 52.0 °F - 34.0 °F 50% 30.04 in 10.0 mi WSW 3.5 mph - N/A   Clear
4:53 PM 46.0 °F 44.8 °F 33.1 °F 61% 30.01 in 10.0 mi WSW 3.5 mph - N/A   Clear
5:53 PM 39.9 °F 37.8 °F 30.9 °F 70% 30.02 in 10.0 mi East 3.5 mph - N/A   Clear
6:53 PM 42.1 °F 37.1 °F 33.1 °F 70% 30.02 in 10.0 mi NE 8.1 mph - N/A   Overcast
7:53 PM 43.0 °F 39.5 °F 33.1 °F 68% 30.01 in 10.0 mi NE 5.8 mph - N/A   Overcast
8:53 PM 39.9 °F 36.7 °F 33.1 °F 77% 29.97 in 10.0 mi WSW 4.6 mph - N/A   Overcast
9:53 PM 41.0 °F 35.8 °F 35.1 °F 79% 29.96 in 10.0 mi North 8.1 mph - 0.00 in Rain Light Rain
10:53 PM 39.9 °F 37.8 °F 35.1 °F 83% 29.94 in 10.0 mi West 3.5 mph - 0.00 in   Overcast
11:53 PM 39.0 °F 34.8 °F 34.0 °F 82% 29.93 in 10.0 mi East 5.8 mph - N/A   Overcast